This is the latest recevied weather packets stored in our database for station/object K1PM-WX. If no packets are shown the sender has not sent any weather packets the latest 10 day(s).
| Time | Temp. | Humidity | Pressure | Rain* | Wind** | Luminosity | Snow |
|---|---|---|---|---|---|---|---|
| 1778181536 | 12.78° C | 51% | 1033 hPa | 0 mm | - | - | - |
| 1778181237 | 13.33° C | 51% | 1033 hPa | 0 mm | - | - | - |
| 1778180937 | 12.78° C | 51% | 1033 hPa | 0 mm | - | - | - |
| 1778180638 | 12.78° C | 51% | 1033 hPa | 0 mm | - | - | - |
| 1778180336 | 12.22° C | 51% | 1033 hPa | 0 mm | - | - | - |
| 1778180037 | 12.78° C | 51% | 1034 hPa | 0 mm | - | - | - |
| 1778179737 | 12.78° C | 49% | 1034 hPa | 0 mm | - | - | - |
| 1778179437 | 14.44° C | 46% | 1034 hPa | 0 mm | - | - | - |
| 1778179137 | 14.44° C | 40% | 1034 hPa | 0 mm | - | - | - |
| 1778178844 | 14.44° C | 41% | 1033 hPa | 0 mm | - | - | - |
| 1778178536 | 14.44° C | 43% | 1033 hPa | 0 mm | - | - | - |
| 1778178236 | 15° C | 43% | 1033 hPa | 0 mm | - | - | - |
| 1778177937 | 13.89° C | 42% | 1033 hPa | 0 mm | - | - | - |
| 1778177637 | 13.89° C | 41% | 1033 hPa | 0 mm | - | - | - |
| 1778177336 | 14.44° C | 41% | 1033 hPa | 0 mm | - | - | - |
| 1778177037 | 15° C | 41% | 1033 hPa | 0 mm | - | - | - |
| 1778176736 | 15° C | 41% | 1033 hPa | 0 mm | - | - | - |
| 1778176437 | 15° C | 41% | 1033 hPa | 0 mm | - | - | - |
| 1778176138 | 15° C | 41% | 1033 hPa | 0 mm | - | - | - |
| 1778175837 | 15° C | 42% | 1033 hPa | 0 mm | - | - | - |
| 1778175537 | 14.44° C | 44% | 1033 hPa | 0 mm | - | - | - |
| 1778175237 | 13.89° C | 47% | 1033 hPa | 0 mm | - | - | - |
| 1778174936 | 13.89° C | 47% | 1033 hPa | 0 mm | - | - | - |
| 1778174637 | 13.89° C | 45% | 1034 hPa | 0 mm | - | - | - |
| 1778174339 | 14.44° C | 42% | 1034 hPa | 0 mm | - | - | - |
* Rain latest hour (hover to see other rain measurements)
** Current wind speed in m/s (hover to see current wind gust speed)